Location: Adrasan
(36.3319°N, 30.4314°E)
Time: 07:57:51
(UTC+00:00)

Delta 2 Rocket - Pass Details

Date: 05 June 2024
Orbit: 398 x 673 km, 35.6° (Epoch: 23 June)

Event Time Altitude Azimuth Distance (km) Brightness Sun altitude
Exits shadow 01:53:20 10° 215° (SW) 1,930 5.5 -8.9°
Maximum altitude 01:57:18 31° 154° (SSE) 1,115 4.8 -8.2°
Drops below altitude 10° 02:01:32 10° 93° (E) 2,059 7.1 -7.5°
Sets 02:04:10 0° 83° (E) 2,996 8.3 -7.1°
